Temperature
19 19 19 19 19 19 19 19 18 18 18 18 18 18 18 18 18 18 18 18 18 18 18 18 18 18 18 18 18 18 18 18 17 17 17 17 17 17 17 17 17 17 17
19 19 19 19 19 19 19 19 18 18 18 18 18 18 18 18 18 18 18 18 18 18 18 18 18 18 18 18 18 18 18 18 18 17 17 17 17 17 17 17 17 17 17
19 19 19 19 19 19 19 18 18 18 18 18 18 18 18 18 18 18 18 18 18 18 18 18 18 18 18 18 18 17 17 17 17 17 17 17 17 17 17 17 17 17 17
19 19 19 19 19 19 19 18 18 18 18 18 18 18 18 18 18 18 18 18 18 18 18 17 17 17 17 17 17 17 17 17 17 17 17 17 17 17 17 17 17 17 17
19 19 19 19 19 18 18 18 18 18 18 18 18 18 18 18 18 18 18 18 18 17 17 17 17 17 17 17 17 17 17 17 17 17 17 17 17 17 17 17 17 17 17
19 19 19 19 19 18 18 18 18 18 18 18 18 18 18 18 18 18 18 18 18 17 17 17 17 17 17 17 17 17 17 17 17 17 17 17 17 17 17 17 17 17 16
19 19 19 19 19 19 18 18 18 18 18 18 18 18 18 18 18 18 18 18 18 17 17 17 17 17 17 17 17 17 17 17 17 17 17 17 17 17 17 16 16 16 16
19 19 19 19 19 18 18 18 18 18 18 18 18 18 18 18 18 18 18 18 17 17 17 17 17 17 17 17 17 17 17 17 16 16 17 17 17 16 16 16 16 16 16
19 19 19 19 18 18 18 18 18 18 18 18 18 18 17 17 17 17 17 17 17 17 17 17 17 17 17 16 17 17 16 17 16 16 16 16 16 16 16 16 16 16 16
19 19 19 19 18 18 18 18 18 18 18 18 18 17 17 17 17 17 17 17 17 17 17 17 17 17 17 16 16 16 16 16 16 16 16 16 16 16 16 16 16 16 16
19 19 18 19 18 18 18 18 18 18 18 18 18 17 17 17 17 17 17 17 17 17 17 17 17 16 16 16 16 16 16 16 16 16 16 16 16 16 16 16 16 16 16
19 19 18 18 18 18 18 18 18 18 18 17 17 17 17 17 17 17 17 17 17 16 16 16 16 16 16 16 16 16 16 16 16 16 16 16 16 16 16 16 16 16 15
19 19 18 18 18 18 18 18 18 18 17 17 17 17 17 17 17 17 16 16 16 16 16 16 16 16 16 16 16 16 16 16 16 16 16 16 16 15 15 15 15 15 15
19 18 18 18 18 18 18 18 17 17 17 17 17 17 17 17 16 16 16 16 16 16 16 16 16 16 16 16 15 15 15 15 15 15 15 15 15 15 15 15 15 15 15
19 18 18 18 18 18 17 17 17 17 17 17 17 16 16 16 16 16 16 16 16 15 15 15 15 15 15 15 15 15 15 15 15 15 15 15 15 15 15 15 15 15 15
18 18 18 18 18 17 17 17 17 17 17 16 16 16 16 16 16 16 16 16 16 16 15 15 15 15 15 15 15 15 15 15 15 15 14 14 15 15 15 14 14 14 14
18 18 18 17 17 17 17 17 16 16 16 16 16 16 16 16 16 16 16 16 15 15 15 15 15 15 15 15 15 15 15 14 14 14 14 14 14 14 14 14 14 14 14
18 18 17 17 17 17 17 16 16 16 16 16 16 16 15 15 15 15 15 15 15 15 15 15 15 15 15 14 14 14 14 14 14 14 14 14 14 14 14 14 14 14 14
18 17 17 17 17 16 16 16 16 16 16 15 15 15 15 15 15 15 15 15 15 15 15 15 14 14 14 14 14 14 14 14 14 14 14 14 14 14 14 14 14 14 14
17 17 17 16 16 16 16 16 16 16 15 15 15 15 15 15 15 15 15 15 14 14 14 14 14 14 14 14 14 14 14 14 14 14 14 13 13 14 14 14 14 13 13
17 17 17 16 16 16 16 16 15 15 15 15 15 15 15 15 14 14 14 14 14 14 14 14 14 14 13 13 13 13 13 13 13 13 13 13 13 13 13 13 13 13 13
17 17 16 16 16 16 15 15 15 15 15 15 15 15 14 14 14 14 14 14 14 14 14 13 13 13 13 13 13 13 13 13 13 13 13 13 13 13 13 13 13 13 13
17 16 16 16 15 15 15 15 15 15 15 15 15 14 14 14 14 14 14 14 13 13 13 13 13 13 13 13 13 13 13 13 13 13 12 12 13 13 13 13 13 13 12
16 16 16 16 15 15 15 15 15 15 15 14 14 14 14 14 14 14 14 13 13 13 13 13 13 13 12 12 12 12 12 12 12 12 12 12 12 12 12 12 12 12 12
16 16 15 15 15 15 15 15 14 14 14 14 14 14 14 14 13 13 13 13 13 13 13 12 12 12 12 12 12 12 12 12 12 12 12 12 12 12 12 12 12 12 12
16 15 15 15 15 15 15 14 14 14 14 14 14 13 13 13 13 13 13 13 13 13 12 12 12 12 12 12 12 12 12 12 11 11 11 11 11 11 11 12 12 12 12
Wind_Speed
2 2 2 2 2 2 2 2 1 2 2 3 5 6 5 6 7 7 7 9 9 9 9 9 10 10 10 11 11 10 10 10 10 10 10 9 9 9 9 10 11 11 11
3 2 2 2 2 2 3 2 2 2 2 2 3 4 5 6 7 7 7 9 9 9 9 9 9 9 9 10 10 9 9 9 9 10 10 9 9 9 9 9 10 11 11
3 3 2 2 2 3 3 2 1 1 2 2 2 3 4 5 6 7 8 7 7 8 8 8 8 9 9 9 9 9 9 9 9 9 9 9 9 8 8 9 9 9 10
4 3 2 1 1 2 2 2 2 2 1 2 2 2 2 3 5 7 8 8 8 7 8 8 9 9 9 9 9 9 9 9 9 8 9 9 9 8 8 9 9 10 10
4 4 2 1 2 2 1 1 2 2 2 1 1 2 2 3 4 6 6 7 8 8 8 8 9 8 8 8 9 9 9 9 9 8 7 8 8 8 8 7 9 10 11
4 4 3 2 3 2 2 2 2 1 1 1 1 0 1 2 3 4 5 6 7 9 9 8 7 8 8 7 8 8 9 9 8 8 7 7 7 7 8 8 8 10 11
4 4 2 2 2 2 2 2 2 2 1 1 2 2 2 1 2 3 3 4 4 6 7 8 7 6 6 7 7 8 8 9 9 8 8 8 8 8 8 8 8 9 10
3 4 3 2 2 2 2 1 2 2 0 1 2 1 2 3 2 1 1 3 4 3 4 6 7 7 5 5 6 8 8 8 9 8 8 8 9 9 9 9 8 8 9
3 3 3 3 2 2 2 1 1 2 1 0 1 3 2 2 2 2 1 1 2 2 2 3 5 6 6 5 5 5 6 6 7 8 8 7 7 7 7 8 8 7 7
3 4 4 3 2 2 1 1 1 1 2 1 1 0 2 3 2 1 2 1 1 2 2 3 4 5 6 5 5 6 7 7 7 8 8 8 7 7 7 7 7 7 7
2 3 3 3 3 2 2 1 1 1 2 2 1 0 0 1 1 2 1 2 1 1 1 2 2 4 6 6 6 6 6 6 6 7 7 7 7 7 7 7 7 7 6
1 2 2 2 2 2 2 1 1 1 1 1 1 1 2 1 1 2 2 1 1 1 1 1 1 2 4 5 7 7 8 7 7 6 6 7 7 6 6 6 6 7 7
2 2 2 2 2 2 2 2 2 1 1 1 1 1 1 1 2 2 3 2 0 1 1 1 1 1 3 4 5 5 6 7 7 7 7 7 7 7 7 6 6 6 6
4 3 3 2 2 2 2 2 2 1 1 1 1 0 1 0 1 2 3 3 1 1 1 2 1 1 1 3 4 5 4 5 5 6 7 7 7 8 8 7 7 7 6
4 4 4 3 2 2 3 2 1 1 1 1 1 1 1 0 0 1 2 3 4 2 2 2 2 2 2 2 5 5 5 5 6 5 5 6 6 7 8 8 7 7 7
4 5 4 4 3 2 2 2 1 1 1 0 1 1 1 0 1 0 1 1 2 3 2 2 3 2 1 2 4 5 6 7 7 7 6 6 6 7 8 9 8 7 8
5 4 4 3 3 3 3 3 2 1 1 0 0 1 0 0 0 1 1 1 1 2 2 2 1 1 1 1 1 3 4 5 6 8 8 7 7 7 7 8 9 9 8
5 4 4 4 3 3 3 3 3 1 1 1 1 0 0 0 1 1 0 0 1 1 3 1 2 1 1 2 2 2 2 3 4 6 8 8 7 7 7 8 8 9 9
4 4 3 3 3 3 3 3 2 2 2 2 1 1 1 1 0 1 0 0 0 0 1 2 1 1 1 1 1 2 1 1 3 4 6 7 7 7 8 8 9 9 9
5 4 3 3 3 3 3 3 3 2 1 1 1 1 1 2 2 2 1 1 1 1 1 1 1 1 1 1 0 1 2 2 3 3 3 4 7 7 8 8 8 8 8
5 4 3 3 3 3 3 4 3 3 2 1 1 1 2 2 3 2 2 2 1 1 1 1 1 1 1 1 1 1 2 2 3 2 2 3 3 3 5 7 8 9 8
4 4 4 4 3 3 4 5 4 3 3 2 2 2 2 2 1 2 2 3 3 3 3 2 2 2 3 3 2 2 2 1 3 2 1 3 2 3 4 5 7 8 8
4 4 4 4 4 4 5 5 6 4 4 4 4 3 3 2 2 2 2 2 2 4 4 4 4 5 4 4 3 3 3 3 4 3 1 3 2 4 4 6 8 8 7
4 4 4 4 4 4 5 4 5 3 3 4 4 4 3 3 2 2 2 2 2 3 4 3 4 5 5 5 5 5 5 4 3 2 2 3 3 3 4 4 7 7 7
4 4 3 4 4 5 6 6 4 2 2 3 3 3 3 3 3 3 2 2 3 4 4 4 4 5 6 5 4 2 1 1 2 3 2 2 2 2 2 3 5 7 7
4 3 3 4 5 5 6 6 5 3 2 2 2 2 4 4 4 3 3 3 3 4 4 4 4 5 5 4 4 4 4 3 2 3 3 2 2 0 2 3 3 3 4
Wind_Direction
154 160 167 176 195 193 183 184 190 179 175 190 190 185 180 177 180 177 184 186 184 185 190 197 201 200 196 196 198 200 199 201 203 203 205 210 213 215 216 217 216 216 217
148 144 140 147 170 182 184 169 170 169 174 173 180 179 178 176 183 183 184 186 188 190 191 194 200 197 193 193 197 200 204 206 207 207 208 209 211 215 217 218 220 220 219
140 135 139 142 169 175 158 133 112 117 135 149 161 173 166 172 177 180 182 184 191 195 194 195 201 198 193 196 201 205 208 208 206 205 209 213 213 216 220 223 225 226 224
141 129 135 150 159 135 126 128 112 112 115 131 163 185 175 177 182 183 184 187 191 194 198 198 204 203 203 207 211 213 214 213 209 208 210 213 215 219 226 231 232 230 228
137 125 128 130 120 105 103 130 103 123 128 137 178 195 198 196 194 188 189 192 192 192 195 202 207 208 211 217 219 217 214 213 209 206 206 212 218 224 230 237 237 234 229
134 127 123 115 101 94 83 94 100 98 139 169 154 148 237 215 190 191 196 195 195 195 199 202 205 215 218 220 219 217 213 210 211 209 209 212 221 230 236 245 248 240 234
141 128 125 116 107 106 118 118 116 97 59 72 67 20 353 313 198 197 194 188 196 196 194 199 203 207 221 223 223 221 220 217 216 216 217 222 228 234 239 243 249 248 239
138 140 124 129 117 111 88 82 105 98 40 98 124 90 6 352 344 244 187 188 202 194 193 195 196 203 208 212 222 223 224 220 220 223 225 229 233 237 238 240 246 249 245
139 128 124 120 109 121 131 127 134 135 164 311 136 140 148 229 299 332 312 183 184 188 201 194 195 201 201 206 217 220 218 222 225 225 227 231 237 243 242 244 244 241 242
140 140 136 127 124 119 110 117 122 136 139 183 315 101 161 170 168 307 341 344 206 190 211 202 191 189 194 194 208 214 221 228 236 235 234 238 243 245 245 244 241 239 236
154 152 148 151 140 132 138 128 94 114 142 157 165 179 66 68 116 147 265 317 338 294 231 197 176 185 193 196 204 212 216 226 236 242 238 239 242 244 246 244 239 237 236
177 159 150 159 149 141 162 160 150 116 124 126 132 133 147 154 185 153 185 232 265 288 279 226 179 186 197 195 207 212 214 219 225 233 236 235 236 241 246 247 242 238 235
180 190 163 154 155 162 158 138 126 112 117 118 143 169 162 182 177 160 155 182 228 312 339 325 256 204 203 190 199 201 209 215 219 224 233 233 230 236 241 242 240 235 229
188 181 168 160 162 166 155 135 145 157 130 136 134 134 118 245 175 160 164 154 133 341 344 293 314 278 229 201 199 194 204 208 216 223 230 236 236 237 238 238 239 235 228
178 165 166 169 174 171 168 155 154 183 150 148 154 126 110 304 32 179 155 153 158 180 256 264 269 281 264 220 198 196 208 217 223 223 228 236 241 245 242 233 234 232 227
171 166 169 178 178 171 161 158 162 179 131 170 162 112 70 341 350 4 136 148 156 164 207 249 242 249 248 241 219 210 218 229 229 229 235 240 243 248 243 233 232 233 230
164 169 175 178 181 172 157 145 158 150 140 299 293 147 195 320 356 343 18 102 125 142 176 271 274 287 265 272 280 237 230 221 230 233 233 240 245 247 246 241 237 235 235
165 165 166 165 171 170 167 164 171 160 172 216 240 147 254 32 38 357 31 59 135 157 165 231 306 325 280 253 253 247 242 229 231 243 240 239 243 246 247 247 246 240 236
160 155 158 163 172 176 175 172 172 185 196 210 207 196 226 136 316 305 353 26 240 101 136 169 272 294 294 294 321 303 293 288 259 263 250 242 243 247 252 250 246 244 240
161 164 163 169 175 175 169 166 163 182 199 214 215 215 221 187 206 216 218 222 186 94 95 123 277 300 290 288 83 304 308 290 273 278 266 253 249 249 252 252 245 243 244
170 166 157 172 184 178 177 168 174 182 188 207 257 245 238 211 198 210 212 197 163 154 154 167 259 296 288 300 264 252 267 284 281 269 280 271 263 253 253 253 246 242 242
167 163 170 182 187 198 185 178 179 192 200 210 234 253 263 254 248 243 223 200 185 188 204 210 238 246 258 253 242 233 243 277 283 271 237 272 247 254 255 243 244 244 241
176 182 185 185 196 207 199 193 190 193 212 222 225 236 254 257 246 236 255 262 249 237 217 204 221 241 246 245 235 244 235 226 241 248 214 268 268 262 264 252 242 245 245
181 192 196 195 197 210 203 203 204 202 219 230 227 220 224 243 245 220 216 247 267 267 252 236 226 239 241 234 220 220 225 239 269 264 192 238 264 263 274 264 245 243 247
191 200 201 197 201 217 210 211 199 195 227 250 244 221 210 218 245 216 192 232 280 293 295 280 266 269 267 254 225 199 216 199 270 273 229 201 251 268 274 266 254 249 252
195 193 207 212 206 212 213 208 193 189 217 244 257 239 225 224 232 205 194 208 243 270 285 302 302 301 296 285 252 211 203 208 236 261 242 198 227 238 297 278 264 255 254
Height
1533 1533 1534 1534 1534 1534 1534 1535 1535 1535 1536 1536 1537 1538 1539 1540 1541 1542 1543 1543 1544 1545 1546 1547 1548 1548 1549 1550 1551 1552 1553 1553 1554 1555 1555 1556 1557 1557 1558 1558 1559 1560 1561
1533 1533 1534 1534 1534 1534 1534 1535 1535 1535 1535 1535 1536 1537 1538 1539 1540 1541 1542 1542 1543 1544 1545 1545 1546 1547 1548 1549 1549 1550 1551 1552 1552 1553 1553 1554 1555 1555 1556 1556 1557 1558 1559
1534 1534 1534 1534 1535 1535 1535 1535 1535 1535 1535 1535 1536 1536 1537 1538 1539 1540 1540 1541 1542 1543 1543 1544 1545 1546 1546 1547 1548 1548 1549 1550 1550 1551 1551 1552 1553 1553 1554 1554 1555 1555 1556
1535 1535 1535 1535 1535 1535 1535 1535 1535 1535 1535 1535 1536 1536 1537 1538 1538 1539 1539 1540 1540 1541 1542 1543 1543 1544 1545 1545 1546 1547 1547 1548 1549 1549 1549 1550 1551 1551 1551 1552 1552 1553 1554
1535 1535 1535 1535 1535 1535 1535 1535 1535 1535 1535 1535 1536 1536 1537 1537 1537 1538 1538 1538 1539 1540 1540 1541 1542 1542 1543 1543 1544 1545 1545 1546 1546 1547 1547 1548 1548 1549 1549 1549 1550 1550 1551
1535 1535 1535 1535 1535 1535 1535 1535 1535 1535 1535 1535 1535 1535 1536 1536 1536 1537 1537 1537 1538 1538 1539 1539 1540 1541 1541 1542 1542 1543 1543 1544 1544 1545 1545 1546 1546 1547 1547 1547 1547 1547 1548
1535 1535 1535 1535 1535 1535 1535 1535 1535 1535 1535 1535 1535 1535 1535 1535 1535 1536 1536 1536 1537 1537 1537 1538 1538 1539 1539 1540 1540 1541 1541 1542 1542 1543 1543 1544 1544 1544 1545 1545 1545 1545 1545
1535 1535 1535 1535 1535 1534 1534 1534 1534 1534 1534 1534 1534 1534 1534 1535 1534 1535 1535 1535 1535 1536 1536 1536 1537 1537 1538 1538 1538 1539 1539 1540 1540 1541 1541 1541 1542 1542 1542 1543 1543 1543 1543
1534 1534 1534 1534 1534 1534 1534 1534 1534 1533 1533 1533 1534 1534 1533 1533 1533 1534 1533 1534 1534 1534 1534 1535 1535 1535 1535 1536 1536 1537 1537 1538 1538 1538 1539 1539 1539 1539 1539 1540 1540 1540 1540
1533 1533 1533 1533 1533 1533 1533 1533 1533 1532 1532 1532 1533 1532 1533 1532 1532 1532 1533 1532 1532 1533 1533 1533 1533 1533 1534 1534 1534 1535 1535 1536 1536 1536 1536 1536 1537 1537 1537 1537 1537 1537 1538
1532 1532 1532 1531 1531 1532 1532 1532 1532 1532 1531 1531 1531 1531 1531 1531 1531 1531 1531 1531 1531 1531 1531 1531 1532 1532 1532 1532 1533 1533 1533 1533 1533 1534 1534 1534 1534 1534 1534 1534 1534 1535 1535
1531 1531 1531 1531 1530 1530 1531 1531 1531 1530 1530 1530 1530 1530 1530 1530 1529 1529 1529 1529 1529 1530 1530 1530 1530 1530 1530 1530 1531 1531 1531 1531 1531 1531 1531 1531 1531 1532 1532 1532 1532 1532 1533
1529 1529 1529 1530 1529 1529 1529 1530 1529 1529 1529 1529 1529 1529 1529 1529 1529 1528 1528 1528 1528 1528 1528 1529 1529 1529 1529 1529 1529 1529 1529 1529 1529 1529 1529 1529 1529 1529 1529 1529 1529 1530 1530
1527 1528 1528 1528 1528 1528 1529 1529 1528 1528 1528 1527 1527 1527 1527 1527 1527 1527 1527 1527 1527 1527 1527 1527 1527 1528 1527 1527 1527 1527 1527 1527 1527 1527 1527 1526 1526 1526 1526 1527 1527 1527 1527
1525 1526 1527 1527 1527 1527 1527 1527 1527 1526 1526 1526 1526 1526 1526 1526 1526 1526 1526 1526 1526 1525 1525 1526 1526 1526 1526 1526 1525 1525 1526 1525 1525 1525 1524 1524 1524 1524 1524 1524 1524 1524 1525
1524 1524 1524 1525 1525 1525 1525 1525 1525 1525 1525 1524 1524 1524 1524 1524 1524 1524 1524 1524 1524 1524 1524 1524 1524 1525 1524 1524 1524 1524 1524 1523 1523 1523 1522 1522 1522 1521 1521 1521 1522 1522 1522
1522 1522 1522 1522 1523 1523 1523 1523 1523 1523 1523 1523 1523 1522 1522 1522 1522 1522 1522 1522 1522 1522 1522 1522 1523 1523 1522 1522 1522 1521 1521 1521 1521 1521 1520 1520 1519 1519 1518 1519 1519 1519 1519
1519 1519 1520 1520 1520 1521 1521 1521 1521 1521 1521 1521 1521 1521 1520 1521 1520 1520 1520 1520 1520 1520 1520 1520 1520 1520 1520 1520 1519 1519 1519 1519 1518 1518 1517 1517 1517 1516 1516 1516 1516 1516 1516
1517 1517 1518 1518 1519 1519 1519 1519 1519 1519 1519 1519 1519 1519 1519 1519 1519 1519 1518 1518 1518 1518 1518 1518 1517 1518 1517 1517 1517 1517 1516 1516 1516 1515 1515 1514 1514 1514 1513 1513 1513 1513 1513
1514 1515 1516 1516 1517 1517 1517 1517 1517 1517 1517 1517 1518 1518 1517 1517 1517 1517 1517 1516 1516 1516 1516 1516 1515 1515 1515 1515 1514 1514 1513 1513 1512 1512 1512 1511 1511 1511 1510 1510 1510 1510 1510
1512 1513 1513 1514 1514 1514 1515 1515 1515 1515 1515 1515 1515 1515 1515 1515 1515 1515 1515 1515 1514 1514 1514 1513 1513 1512 1512 1512 1511 1511 1510 1509 1509 1509 1508 1508 1508 1507 1507 1507 1506 1506 1506
1509 1510 1511 1511 1512 1512 1513 1513 1513 1513 1512 1512 1512 1513 1513 1513 1513 1513 1512 1512 1512 1512 1511 1511 1510 1510 1509 1509 1509 1508 1507 1506 1505 1506 1505 1504 1504 1504 1503 1503 1503 1503 1502
1506 1507 1508 1509 1509 1510 1510 1510 1510 1510 1510 1509 1510 1510 1510 1510 1510 1510 1510 1510 1509 1509 1509 1509 1508 1507 1507 1506 1506 1505 1504 1503 1502 1502 1501 1500 1500 1500 1500 1499 1499 1499 1499
1503 1504 1505 1505 1506 1507 1507 1507 1507 1507 1507 1507 1507 1507 1508 1508 1508 1507 1507 1507 1506 1506 1506 1505 1505 1504 1504 1503 1502 1502 1501 1500 1499 1499 1498 1497 1496 1496 1496 1496 1496 1495 1495
1501 1501 1502 1502 1503 1504 1504 1505 1505 1504 1504 1505 1505 1505 1505 1505 1505 1505 1504 1504 1503 1503 1503 1502 1502 1501 1500 1500 1499 1498 1497 1496 1495 1494 1495 1494 1493 1492 1492 1492 1492 1492 1492
1498 1499 1499 1500 1500 1501 1502 1502 1502 1502 1501 1501 1502 1502 1502 1502 1502 1502 1501 1500 1500 1499 1499 1499 1498 1498 1497 1496 1496 1495 1494 1493 1491 1491 1491 1491 1490 1489 1488 1488 1488 1488 1488